Погода в Омолоне

Погода в Омолоне : погода сейчас, прогноз погоды и архив. Всё, что Вы хотите узнать о погоде в Омолоне!

Поиск расширенной информации на нашем сайте:

Другие новости

Новости СМИ2

Главная страница сайта

Новости сайта

03.07.2017

Напоминаем, что на нашем специализированном сайте Метеоцентр.Азия вы можете получить высокодетализированные автоматические прогнозы погоды по пунктам России, СНГ и мира в авиационном формате (включающие направление и скорость ветра, видимость, явления погоды, количество и форму облачности, нижнюю и верхнюю границу облачности).


Погода в Омолоне - сегодня

Время (UTC), дата Ветер
(°,м/с) 
Видим.   Явления Облачность Т
(°С)
Тd
(°С)
f(%) Тe
(°С)
Pmin
(гПа)
dP
(гПа)
Po
(мм)
O2
(г/м3)
Тmin Tmax R s Состояние
почвы
21 21.11.17 290 (З) 1{05}  50000 м    9/5 1000 м средняя 
[Sc|Ac trans]
-21.4 -23.6 82 -22  1000.4  -0.4  724  318  -30.9    0.0  77  равномерный
сухой снег
100% 
00 22.11.17 120 (ЮВ) 2{04}  50000 м    9/3 600 м средняя, верхняя 
[Sc|Ac trans|Ci fib]
-15.9 -17.6 87 -18  998.6  -1  724  311           
03 22.11.17 тихо () {03}  50000 м    6/0 средняя, верхняя 
[Ac trans|Ci fib]
-20.9 -23 83 -21  998.7  -0.5  723  317           
06 22.11.17 050 (СВ) 2{03}  50000 м    8/0 средняя, верхняя 
[Ac trans|Ci fib]
-24.3 -26.4 83 -27  1001  1.7  724  322           
09 22.11.17 040 (СВ) 1{03}  50000 м    10/4 1000 м средняя 
[Sc|Ac trans]
-21.5 -23.8 82 -22  1001.8  1.2  725  319    -15.5       
12 22.11.17 140 (ЮВ) 1{02}  50000 м    4/0 верхняя 
[Ci fib]
-26.2 -28.9 78 -27  1004  1.4  726  326           
15 22.11.17 140 (ЮВ) 1{02}  21000 м  снежные кристаллы  10/0 средняя, верхняя 
[Ac trans|Cs]
-24.8 -27.3 80 -25  1005.4  1.6  728  324           
18 22.11.17 170 (Ю) 1{02}  15000 м  слаб. снег  10/6 600 м средняя 
[Sc|As op]
-22.9 -25.2 81 -23  1007.7  2.4  729  322           
21 22.11.17 тихо () {02}  50000 м  {снег}  5/0 верхняя 
[Ci fib]
-28.5 -31.4 76 -29  1010.7  2.1  731  331  -28.5    0.4  76  равномерный
сухой снег
100% 
00 23.11.17 тихо () {02}  50000 м  {снег}  6/0 средняя, верхняя 
[Ac trans|Ci fib]
-33 -36.4 71 -33  1013.7  2.3  733  338  -33         
03 23.11.17 тихо () {03}  50000 м    8/0 средняя, верхняя 
[Ac trans|Ci fib]
-28.5 -31.5 75 -29  1015.7  2.5  735  332           
06 23.11.17 тихо () {01}  50000 м    6/0 средняя, верхняя 
[Ac trans|Ci fib]
-34.2 -37.9 69 -34  1018.8  2.3  736  341           
09 23.11.17 тихо () {01}  50000 м    3/0 верхняя 
[Ci fib]
-37.8 -41.8 66 -38  1022  2.4  738  347    -28.3       
12 23.11.17 тихо () {01}  4200 м  дымка  3/0 верхняя 
[Ci fib]
-40.5 -44.8 63 -41  1023.7  1.2  739  352           
15 23.11.17 тихо () {02}  4500 м  дымка  3/0 верхняя 
[Ci fib]
-42.2 -46.7 61 -42  1024.5  0.6  739  355           
18 23.11.17 тихо () {01}  4300 м  дымка  3/0 верхняя 
[Ci fib]
-42.9 -47.6 60 -43  1024.4  -0.2  739  356           
21 23.11.17 тихо ()   3500 м  дымка  8/5 1000 м средняя, верхняя 
[Ac trans|Ci fib]
-42.1 -46.6 61 -42  1023.1  -1.2  738  354  -43.7         
00 24.11.17 тихо () {01}  3800 м  дымка  10/0 верхняя 
[Cs]
-37.1 -41.2 66 -37  1021.8  -0.4  738  346           
03 24.11.17 340 (С) 1{02}  21000 м  снежные кристаллы  10/0 средняя, верхняя 
[Ac trans|Cs]
-33.6 -37.4 69 -35  1020  -1.2  737  341           
06 24.11.17 тихо () {02}  23000 м  снежные кристаллы  10/0 средняя, верхняя 
[Ac trans|Cs]
-32.4 -35.9 71 -32  1017.3  -2.4  735  338           
09 24.11.17 310 (СЗ) 1{03}  50000 м  слаб. снег  10/5 1000 м средняя 
[Sc|As op]
-31.3 -34.7 72 -32  1013.7  -3.2  733  335    -31.1  0.5     
12 24.11.17 тихо () {03}  10 км  слаб. снег  10/8 600 м средняя 
[Sc|As op]
-30.5 -33.7 74 -31  1008.8  -4.8  729  333           
15 24.11.17 290 (З) 1{02}  10 км  слаб. снег  10/8 600 м средняя 
[Sc|As op]
-28.4 -31.5 75 -29  1002.4  -5.8  725  328           
18 24.11.17 тихо () {02}  50000 м  в посл. час снег  10/8 600 м средняя 
[Sc|Ac trans]
-26.6 -29.4 77 -27  998.3  -3.8  722  324           
21 24.11.17 тихо () {02}  50000 м  {снег}  8/0 средняя, верхняя 
[Ac trans|Ci fib]
-25.8 -28.5 78 -26  995.4  -2.6  720  322  -31.3    77  равномерный
сухой снег
100% 
Время (UTC), дата Ветер
(°,м/с) 
Видим.   Явления Облачность Т
(°С)
Тd
(°С)
f(%) Тe
(°С)
Pmin
(гПа)
dP
(гПа)
Po
(мм)
O2
(г/м3)
Тmin Tmax R s Состояние
почвы

Для получения пояснительной информации подведите курсор к названию столбца.

ПОГОДА в Омолоне - архив

Всё, что Вы хотите узнать о погоде в Омолоне - удобно и подробно!

Выберите нужную дату (начиная с 1 января 2015* года) и нажмите кнопку "Найти".
Будут отображены архивные сводки погоды по пункту Омолон, начиная с указанной даты.


Отображать данные в формате CSV (для использования в таблицах Excel)


Внимание! Наш архив погоды предназначен исключительно для личного некоммерческого использования в познавательных целях. Если Вам необходимы официальные справки о состоянии погоды (для производственных, юридических, коммерческих и т.п. целей), обращайтесь в органы Росгидромета.

*Примечание: данная дата относится к архиву по метеостанциям СССР (Россия, СНГ, Балтия).
Архив по метеостанциям Зарубежной Европы и Азии (кроме Китая) хранится 10 дней, по другим регионам земного шара (Китай, Африка, Америка, Австралия, Океания) - 1 день.

Омолон - район местоположения метеостанции


Название, широта, долгота, высота метеостанции:
Омолон 65.2°ш. 160.5°д. 264 м над ур. моря [Российская Федерация]

Дополнительная информация

В oтличие oт бoльшинства пoгoдных сайтoв мы публикуем пoдрoбную метеoинфoрмацию в детальнoм прoфессиoнальнoм фoрмате.

Характеристики температуры и влажнoсти вoздуха измеряются на высoте 2 м в тени вдали oт зданий и деревьев.
Скoрoсть ветра измеряется на высoте 10 м (на урoвне рoста челoвека скoрoсть ветра ниже в 1.5-2 раза). Если метеoстанция нахoдится в гoрoде или в лесу, тo скoрoсть ветра занижена на 2-4 м/с пo сравнению с oткрытым местoм. Скoрoсть ветра над акватoриями крупных рек и oзёр, а также на вершинах хoлмoв на 2-5 м/с выше, чем в oбычных услoвиях.
Атмoсфернoе давление в разных тoчках местнoсти мoжет значительнo oтличаться oт давления на метеoстанции, в зависимoсти oт услoвий рельефа (при пoдъёме на 10 м давление пoнижается примернo на 1 мм рт.ст.).